Home > Weather > Eureka > Past weeks

Flag for Canada Weather for the Past 2 Weeks in Eureka, Nunavut, Canada

Now
0 °F

Sunny.


Feels Like: 0 °F
Forecast: 2 / 15 °F
Wind: 2 mph from North

Location: Eureka

Current Time: May 6, 2016 at 2:43:17 AM

Latest Report: May 6, 2016 at 2:00 AM


Visibility: 15 mi

Pressure: 30.24 "Hg

Humidity: 84%

Dew Point: -4 °F

Location of EurekaLocation

Historic Weather in Eureka — Graph

°F

Eureka Temperature Yesterday

Maximum temperature yesterday: 9 °F (at 3:00 PM)
Minimum temperature yesterday: 0 °F (at 6:00 AM)
Average temperature yesterday: 4 °F

High & Low Weather Summary for the Past Weeks

 TemperatureHumidityPressure
High12 °F (May 1, 1:00 PM)85% (Apr 26, 6:00 PM)30.59 "Hg (Apr 26, 6:00 PM)
Low-18 °F (Apr 21, 2:00 AM)61% (May 2, 4:00 AM)30.07 "Hg (May 2, 1:00 AM)
Average-5 °F77%30.33 "Hg
* Reported Apr 21 1:00 AM — May 6 1:00 AM, Eureka, Weather by CustomWeather, © 2016

Note: Actual official high and low records may vary slightly from our data, if they occured in-between our weather recording intervals... More about our weather records

Advertising

Eureka Weather History for the Previous 24 Hours

Scroll right to see more
 ConditionsComfort  
Time TempWeatherWind HumidityBarometerVisibility
1:00 AM
Fri, May 6
0 °FSunny.2 mph84%30.25 "Hg15 mi
10:00 PM
Thu, May 5
3 °FPassing clouds.No wind85%30.25 "Hg15 mi
9:00 PM3 °FPassing clouds.3 mph85%30.25 "Hg15 mi
8:00 PM7 °FPassing clouds.2 mph78%30.26 "Hg15 mi
7:00 PM7 °FScattered clouds.No wind78%30.26 "Hg15 mi
6:00 PM7 °FPartly sunny.No wind78%30.26 "Hg15 mi
5:00 PM7 °FPartly sunny.No wind78%30.25 "Hg15 mi
4:00 PM9 °FPartly sunny.2 mph72%30.25 "Hg15 mi
3:00 PM9 °FBroken clouds.2 mph72%30.25 "Hg15 mi
2:00 PM7 °FBroken clouds.2 mph78%30.24 "Hg15 mi
1:00 PM5 °FBroken clouds.2 mph78%30.25 "Hg15 mi
12:00 PM5 °FPartly sunny.2 mph78%30.24 "Hg15 mi
11:00 AM5 °FPartly sunny.2 mph78%30.24 "Hg15 mi
10:00 AM3 °FPartly sunny.No wind78%30.24 "Hg15 mi
9:00 AM1 °FPartly sunny.5 mph78%30.24 "Hg15 mi
8:00 AM1 °FPartly sunny.2 mph78%30.24 "Hg15 mi
7:00 AM1 °FPartly sunny.No wind78%30.25 "Hg15 mi
6:00 AM0 °FPartly sunny.No wind84%30.25 "Hg15 mi
5:00 AM1 °FPartly sunny.No wind78%30.24 "Hg15 mi
4:00 AM1 °FScattered clouds.2 mph85%30.24 "Hg15 mi
3:00 AM1 °FScattered clouds.3 mph85%30.24 "Hg15 mi
2:00 AM1 °FScattered clouds.5 mph85%30.23 "Hg15 mi
Weather by CustomWeather, © 2016

See weather overviewHow to use our weather pages